#timestamp,LO_Frequency,Hit,StdDev 
1600236015.6,286047000.7,N
1600236035.4,286046998.1,N
1600236055.3,286046998.7,N
1600236075.1,286046996.6,N
1600236095.8,286046998.5,N
1600236115.7,286046998.5,N
1600236135.5,286047000.7,N
1600236155.4,286047000.7,N
1600236175.2,286046996.8,N
1600236195.0,286046999.2,N
1600236195.9,286046999.2,N
1600236215.8,286047000.7,N
1600236235.6,286046998.9,N
1600236255.5,286046995.3,Y
1600236275.3,286046997.4,P
1600236295.1,286046997.1,P
1600236315.9,286046998.2,N
1600236335.7,286046998.4,N
1600236355.5,286046998.4,N
1600236375.4,286046995.6,Y
1600236395.2,286046996.6,P
1600236415.1,286046999.4,N
1600236416.0,286046999.4,N
1600236435.8,286046999.4,N
1600236455.6,286047000.3,N
1600236475.5,286047000.9,N
1600236495.3,286046999.4,N
1600236515.1,286047000.7,N
1600236535.9,286047002.4,N
1600236555.7,286047003.8,N
1600236575.6,286047001.7,N
1600236595.4,286047002.6,N
1600236615.2,286047002.4,N
1600236635.1,286047004.1,N
1600236636.0,286047004.1,N
1600236655.8,286047002.1,N
1600236675.7,286047002.3,N
1600236695.5,286047002.8,N
1600236715.3,286047001.8,N
1600236735.2,286047001.5,N
1600236755.9,286047002.2,N
1600236775.7,286047001.9,N
1600236795.6,286047002.2,N
1600236815.4,286047001.6,N
1600236835.3,286047002.1,N
1600236855.1,286047000.1,N
1600236856.0,286047000.1,N
1600236875.8,286047000.8,N
1600236895.7,286047002.1,N
1600236915.5,286047001.7,N
1600236935.3,286047002.0,N
1600236955.2,286047004.4,Y
1600236975.0,286047002.2,P
1600236975.9,286047002.2,P
1600236995.8,286047000.3,N
1600237015.6,286047000.5,N
1600237035.4,286047000.0,N
1600237055.3,286046999.9,N
1600237075.1,286047000.2,N
1600237095.9,286047001.2,N
1600237115.7,286047000.7,N
1600237135.5,286046996.5,Y
1600237155.4,286046995.6,P
1600237175.2,286046998.0,N
1600237195.1,286046999.5,N
1600237196.0,286046999.5,N
1600237215.8,286046999.2,N
1600237235.6,286046997.6,N
1600237255.5,286047000.8,N
1600237275.3,286046994.9,Y
1600237295.2,286046996.8,P
1600237315.9,286046998.6,N
1600237335.7,286046996.7,P
1600237355.6,286046997.3,N
1600237375.4,286047001.1,N
1600237395.3,286047000.1,N
1600237415.1,286047002.6,N
1600237416.0,286047002.6,N
1600237435.8,286047003.8,N
1600237455.7,286046999.8,N
1600237475.5,286047001.2,N
1600237495.3,286046997.5,N
1600237515.2,286046995.2,N
1600237535.0,286046997.4,N
1600237535.9,286046997.4,N
1600237555.8,286046998.9,N
1600237575.6,286047000.2,N
1600237595.4,286046998.5,N
1600237615.3,286047001.2,N
1600237635.1,286046998.8,N
1600237655.9,286047000.5,N
1600237675.7,286047002.8,N
1600237695.5,286047000.1,N
1600237715.4,286047000.4,N
1600237735.2,286047001.2,N
1600237755.0,286046996.5,N
1600237756.0,286046996.5,N
1600237775.8,286046998.5,N
1600237795.6,286046997.1,N
1600237815.5,286047000.5,N
1600237835.3,286047002.7,N
1600237855.2,286047001.0,N
1600237875.9,286046999.1,N
1600237895.7,286047000.2,N
1600237915.6,286047002.7,N
1600237935.4,286046999.5,N
1600237955.2,286047001.0,N
1600237975.1,286047000.6,N
1600237976.0,286047000.6,N
1600237995.8,286046998.7,N
1600238015.7,286046997.9,N
1600238035.5,286046997.3,N
1600238055.3,286046997.3,N
1600238075.2,286046996.6,N
1600238095.0,286047000.1,N
1600238095.9,286047000.1,N
1600238115.8,286047001.5,N
1600238135.6,286047003.7,N
1600238155.4,286047004.2,N
1600238175.3,286047005.7,N
1600238195.1,286047002.7,N
1600238215.8,286047001.2,N
1600238235.7,286047001.1,N
1600238255.5,286047002.1,N
1600238275.4,286047002.7,N
1600238295.2,286047002.4,N
1600238315.0,286047002.6,N
1600238315.9,286047002.6,N
1600238335.8,286047002.2,N
1600238355.6,286047002.3,N
1600238375.4,286047002.5,N
1600238395.3,286047005.5,N
1600238415.1,286047008.8,Y
1600238435.9,286047002.6,P
1600238455.7,286047002.7,P
1600238475.6,286047000.4,N
1600238495.4,286047003.5,Y
1600238515.2,286047001.9,P
1600238535.1,286047002.2,P
1600238536.0,286047002.2,P
1600238555.8,286047000.4,N
1600238575.7,286047002.2,Y
1600238595.5,286046998.0,P
1600238615.3,286046995.7,N
1600238635.2,286046995.0,N
1600238655.0,286046994.9,N
1600238655.9,286046994.9,N
1600238675.7,286046997.0,N
1600238695.6,286046997.3,N
1600238715.4,286046996.9,N
1600238735.3,286046999.3,N
1600238755.1,286046999.0,N
1600238775.8,286046999.1,N
1600238795.7,286046998.6,N
1600238815.5,286047001.6,N
1600238835.4,286046998.1,N
1600238855.2,286046999.3,N
1600238875.0,286046997.3,N
1600238875.9,286046997.3,N
1600238895.8,286046997.3,N
1600238915.6,286046997.7,N
1600238935.4,286046996.5,N
1600238985.3,286046999.0,E
1600238995.2,286046998.9,N
1600239015.1,286046998.2,P
1600239016.0,286046998.2,P
1600239035.8,286047002.4,Y
1600239055.7,286047002.6,P
1600239075.5,286047000.6,N
1600239095.3,286047002.4,N
1600239115.2,286047000.0,N
1600239135.0,286047000.8,N
1600239135.9,286047000.8,N
1600239155.8,286047000.3,N
1600239175.6,286046998.5,N
1600239195.4,286047001.2,N
1600239215.3,286046999.7,N
1600239235.1,286046999.9,N
1600239255.8,286046999.9,N
1600239275.7,286047001.4,N
1600239295.5,286047002.8,N
1600239315.4,286047002.7,N
1600239335.2,286047003.2,N
1600239355.0,286047003.3,N
1600239355.9,286047003.3,N
1600239375.8,286047004.3,N
1600239395.6,286047003.5,N
1600239415.4,286047001.4,N
1600239435.3,286047001.7,N
1600239455.1,286046998.5,N
1600239475.9,286046997.6,N
1600239495.7,286046998.4,N
1600239515.5,286046998.8,N
1600239535.4,286046999.9,N
1600239555.2,286047000.2,N
1600239575.0,286046999.9,N
1600239576.0,286046999.9,N
1600239595.8,286047003.1,N
